Regional Weather Roundup
Issued by NWS

Home | Current Version | Previous Version | Graphics & Text | Print | Product List | Glossary On
Versions: 1 2 3 4 5 6 7 8 9 10 11 12 13 14 15 16 17 18 19 20 21 22 23 24 25 26 27 28 29 30 31 32 33 34 35 36 37 38 39 40 41 42 43 44 45 46 47 48 49 50
000
ASUS43 KOAX 281610
RWRNE

WEATHER ROUNDUP FOR NEBRASKA
NATIONAL WEATHER SERVICE OMAHA NE
1100 AM CDT SUN MAY 28 2017

NOTES: SATELLITE DATA IS BEING USED TO AUGMENT CLOUD COVER ABOVE
       12000 FEET.
       "FAIR" INDICATES FEW OR NO CLOUDS BELOW 12,000 FEET WITH NO
       SIGNIFICANT WEATHER AND/OR OBSTRUCTIONS TO VISIBILITY.

  * THESE STATIONS DO NOT REPORT WEATHER SUCH AS RAIN...SNOW OR FOG.

NEZ001>004-019>022-054>056-281700-
NEBRASKA PANHANDLE

CITY           SKY/WX    TMP DP  RH WIND       PRES   REMARKS
SCOTTSBLUFF    SUNNY     64  43  46 W14       30.18F
ALLIANCE       SUNNY     66  44  45 NW15G24   30.13S
CHADRON        CLOUDY    61  45  55 W16       30.14R
GORDON         CLOUDY    63  46  52 NW10      30.12R
KIMBALL        SUNNY     65  37  35 NW14      30.23S
SIDNEY         SUNNY     66  43  43 NW16      30.19F
$$

NEZ057>060-069>072-079>082-281700-
SOUTHWEST NEBRASKA

CITY           SKY/WX    TMP DP  RH WIND       PRES   REMARKS
NORTH PLATTE   SUNNY     70  51  51 W14       30.08S
IMPERIAL       SUNNY     70  42  36 NW14G23   30.14S
LEXINGTON      SUNNY     69  51  52 W10       30.06S
MCCOOK         SUNNY     71  48  43 W12       30.10S
OGALLALA       SUNNY     69  46  43 NW17      30.13S
$$

NEZ005>010-023>029-035>040-094-281700-
NORTH CENTRAL NEBRASKA

CITY           SKY/WX    TMP DP  RH WIND       PRES   REMARKS
VALENTINE      MOSUNNY   70  44  39 NW17G24   30.03S
AINSWORTH      SUNNY     68  47  46 N18G25    30.02S
BROKEN BOW     SUNNY     73  45  36 NW20      30.03S
O`NEILL        SUNNY     68  47  45 NW17G25   29.98R
ORD            SUNNY     71  49  45 W13       29.98F
THEDFORD       SUNNY     71  44  38 NW18G26   30.05F
$$

NEZ041-046>049-061>064-073>077-083>087-281700-
SOUTH CENTRAL NEBRASKA

CITY           SKY/WX    TMP DP  RH WIND       PRES   REMARKS
GRAND ISLAND   SUNNY     73  47  39 NW14      30.00S
AURORA         SUNNY     73  43  34 NW13G18   29.99S
HASTINGS       SUNNY     73  47  39 NW10      30.03R
HEBRON         SUNNY     73  49  43 N10       30.00S
HOLDREGE       SUNNY     72  45  37 NW13      30.05S
KEARNEY *      SUNNY     72  45  37 NW10      30.03F
YORK           SUNNY     73  45  35 NW16      29.98S
$$

NEZ011>018-030>034-042>045-281700-
NORTHEAST NEBRASKA

CITY           SKY/WX    TMP DP  RH WIND       PRES   REMARKS
NORFOLK        MOSUNNY   73  46  38 NW10      29.91F
ALBION         SUNNY     73  48  40 NW14      29.96S
BLAIR          SUNNY     72  48  43 W12G18    29.93R
FREMONT        SUNNY     74  47  37 W8        29.92F
TEKAMAH        SUNNY     74  46  36 NW3       29.90F
WAYNE          MOSUNNY   73  48  41 NW13G20   29.90F
$$

NEZ050>053-065>068-078-088>093-281700-
SOUTHEAST NEBRASKA

CITY           SKY/WX    TMP DP  RH WIND       PRES   REMARKS
LINCOLN        SUNNY     75  48  38 NW12      29.96S
OMAHA EPPLEY   SUNNY     74  50  42 NW9       29.91F
BEATRICE       SUNNY     72  53  50 NW7       29.97S
FALLS CITY     SUNNY     71  56  58 NW9       29.94R
NEBRASKA CITY  SUNNY     71  47  42 N9        29.95R
PLATTSMOUTH    SUNNY     72  53  51 W9        29.94R
$$

NEZ044-045-051>053-067-281700-
OMAHA AREA

CITY           SKY/WX    TMP DP  RH WIND       PRES   REMARKS
OMAHA EPPLEY   SUNNY     74  50  42 NW9       29.91F
BLAIR          SUNNY     72  48  43 W12G18    29.93R
FREMONT        SUNNY     74  47  37 W8        29.92F
MILLARD        SUNNY     73  55  52 NW10      29.93S
OFFUTT AFB     SUNNY     71  51  48 W7        29.91F
PLATTSMOUTH    SUNNY     72  53  51 W9        29.94R
WAHOO          FAIR      75  44  33 NW9       29.94S
$$



USA.gov is the U.S. government's official web portal to all federal, state and local government web resources and services.